Find OneWeb SL0182

NORAD ID: 48228 Int'l Des: 2021-031 Owner: ONEWEBN Country: UK Constellation: oneweb operational
LEOCIRCULARPOLARONEWEB_TYPE

当前视图

正在加载3D地球...

About OneWeb SL0182

OneWeb SL0182 (NORAD 48228) is a oneweb constellation satellite launched Apr 25, 2021 by ONEWEBN of UK. It operates in LEO, CIRCULAR, POLAR, ONEWEB_TYPE orbit with a mass of 148.00 kg.

关于 OneWeb SL0182

正在加载描述...

即将过境

Passes for default location (London). Set your location on the main map for personalized predictions.

高度历史

Loading altitude history...

两行轨道根数

1 48228U 21031U 26171.37911167 .00000100 00000-0 23474-3 0 9997
2 48228 87.8968 289.0694 0002073 95.4298 264.7068 13.14503106248853
Epoch: Jun 20, 2026 • Age: 24 hours

当前状态

高度 1220.7 km
速度 7.24 km/s
星下点 -36.77°S, 112.17°W
发射日期 Apr 25, 2021
运行时间 5.1 years
类型 internet

技术详情

分类 Payload
质量 148.00 kg
干质量 140.00 kg
总质量 148.00 kg
长度 1.30 m
直径 1.00 m
跨度 5.00 m
形状 Trapezoid+2 pan
制造商 ONEWUS
平台类型 ARROW
阶段状态 In Orbit
所有者/国家 ONEWEBN/UK

Most Searched